Wind_Speed
10 11 13 17 17 20 20 21 24 25 24 26 22 25 28 22 26 26 23 18 21 25 16 22 29 35 37 27 22 20 19 18 19 17 20 22 21 24 24 24 23 22 24 27
12 14 14 14 16 17 19 22 26 25 23 22 24 29 28 22 22 21 24 22 23 19 18 24 25 19 16 21 21 22 24 23 23 26 31 26 23 22 26 23 22 22 21 24
12 16 18 16 18 20 20 21 22 24 21 21 25 27 25 27 24 21 20 19 22 22 21 16 14 12 15 18 23 24 25 28 30 33 28 27 26 26 17 19 21 21 21 21
13 17 17 18 20 16 19 19 21 22 20 15 17 17 22 22 25 22 22 24 20 15 15 16 14 9 10 13 18 21 26 31 33 32 27 26 21 16 18 16 18 19 18 20
15 15 15 17 18 18 22 22 23 23 21 22 24 15 18 21 25 21 22 24 24 17 19 20 17 13 20 25 26 30 32 31 34 34 33 28 21 20 16 15 14 16 21 22
20 10 14 9 16 21 19 21 24 23 18 19 24 21 20 20 22 25 22 21 22 22 25 21 19 27 28 30 31 30 34 38 36 33 32 28 23 24 18 18 17 16 21 22
15 11 3 5 10 21 15 14 11 16 15 17 23 22 18 24 23 25 27 22 20 15 16 13 17 17 16 19 25 23 24 26 30 31 28 32 33 26 20 23 20 18 20 22
13 14 8 3 10 17 16 16 7 13 15 16 19 17 13 22 23 23 26 22 23 9 15 17 9 10 15 22 23 25 21 21 23 25 26 24 26 24 20 24 21 21 21 24
13 19 17 19 17 12 17 15 14 11 22 19 18 24 14 21 24 23 25 25 10 11 13 9 9 6 6 11 10 24 19 21 21 22 23 23 25 23 25 22 23 26 24 23
15 19 18 24 21 14 24 17 15 7 6 16 16 17 14 13 23 18 23 17 17 16 8 7 11 12 14 18 13 22 20 20 20 19 21 22 23 20 23 23 28 26 23 24
16 13 18 18 19 19 14 16 9 5 5 6 12 11 11 17 21 26 29 22 10 3 9 10 7 5 7 6 12 13 14 18 19 21 22 23 22 21 25 26 22 25 24 24
12 6 15 21 23 17 9 15 5 8 10 11 13 19 15 21 26 27 29 8 12 7 11 4 11 8 8 9 16 15 19 20 22 22 22 26 28 26 23 23 23 23 22 20
5 5 12 14 14 9 8 21 17 14 9 13 12 11 13 20 21 24 23 27 16 8 16 7 8 12 13 13 17 20 21 21 27 26 30 27 25 23 22 22 21 18 18 15
7 12 15 14 19 10 11 21 21 17 12 18 13 16 13 9 9 20 25 23 16 8 16 4 6 7 11 16 20 20 22 29 28 27 24 23 22 22 22 22 19 19 16 15
2 8 15 19 21 22 23 24 25 21 22 20 18 17 11 10 8 13 21 29 23 11 16 7 6 5 5 13 20 23 26 28 27 25 24 22 22 21 20 19 17 17 17 16
5 8 14 21 21 22 24 22 24 25 22 23 22 17 11 8 18 19 22 23 13 11 14 5 2 7 6 11 17 21 24 26 26 26 23 22 20 19 19 18 17 15 20 16
5 6 10 21 18 16 15 10 18 20 19 10 12 13 16 17 14 14 16 15 13 10 11 7 0 9 5 8 20 20 24 26 24 23 22 21 20 20 18 20 17 22 18 15
6 2 2 8 12 10 8 11 17 19 19 17 15 15 20 17 16 14 18 18 12 13 9 12 3 9 12 7 15 25 25 23 21 21 22 22 22 19 20 17 20 18 16 15
9 1 3 4 5 13 13 8 10 16 23 18 15 14 14 17 19 15 18 16 10 11 6 7 13 11 7 6 18 23 23 21 21 21 21 24 25 24 18 21 20 17 15 13
10 7 3 4 5 4 6 10 10 14 15 14 15 15 17 15 10 5 19 20 8 4 4 6 15 16 13 10 19 22 19 20 19 19 22 20 26 22 22 21 19 16 14 13
5 3 7 9 5 5 2 1 2 3 8 20 19 18 20 15 13 18 22 17 17 2 3 7 18 16 17 15 20 19 18 17 22 21 19 25 25 25 20 18 15 15 15 15
3 3 3 2 4 4 8 5 3 5 16 19 17 17 19 19 20 19 20 16 18 6 5 6 11 24 21 19 22 17 15 25 23 18 24 23 25 19 22 18 16 14 14 19
4 4 3 5 4 11 12 9 9 11 14 13 16 17 18 21 20 21 20 17 18 7 4 5 13 20 21 23 20 17 24 23 18 20 27 22 21 19 23 19 17 15 17 17
11 15 6 4 5 5 11 14 10 11 13 14 14 18 22 22 20 21 18 16 17 7 4 15 11 12 15 25 20 23 25 20 18 27 22 20 20 20 20 14 15 14 14 14
14 12 8 11 7 11 3 9 13 14 13 15 18 19 17 17 18 18 17 14 13 5 10 15 18 13 20 21 21 28 25 22 27 23 23 21 18 17 13 10 5 8 10 13
3 7 4 3 6 1 8 14 15 14 14 16 19 16 17 15 14 15 17 9 7 9 12 13 13 15 24 23 23 28 27 25 26 22 20 19 20 18 16 15 17 14 11 11
Wind_Direction
307 300 273 284 279 278 299 294 284 282 292 298 287 269 261 245 228 234 246 251 244 254 262 258 233 229 227 202 200 198 203 211 229 239 234 240 243 247 241 236 232 229 219 201
279 262 266 287 287 276 281 282 279 286 292 291 285 279 279 274 257 249 226 227 244 260 246 243 251 242 186 178 190 208 212 219 225 237 245 243 239 239 236 224 220 219 206 195
302 303 307 298 291 286 275 273 278 285 291 281 281 281 278 273 280 276 280 271 226 228 250 254 231 229 225 208 209 213 215 221 228 236 238 242 243 251 262 207 204 202 198 196
300 294 284 281 272 273 273 273 277 281 280 271 273 275 263 269 263 259 267 273 267 252 248 254 249 234 228 233 224 219 225 224 226 226 225 227 220 218 222 222 191 185 192 200
289 291 294 289 307 333 310 313 304 286 279 277 266 260 269 268 269 254 251 239 261 255 257 241 245 248 243 246 241 239 233 227 225 222 222 222 219 217 214 182 179 190 190 208
267 276 275 332 310 303 299 290 283 289 274 263 265 261 264 265 269 268 265 250 236 232 239 246 240 242 244 239 230 228 227 227 222 214 213 212 220 212 190 179 166 159 182 200
310 320 329 17 301 321 281 293 288 258 252 262 257 255 260 264 265 266 268 275 266 261 243 237 234 228 230 237 240 228 219 200 202 205 199 210 221 214 203 169 159 163 175 198
322 307 353 168 242 266 274 279 270 282 261 274 291 284 278 311 305 273 269 266 257 263 287 231 252 245 225 221 214 217 211 186 197 196 199 209 211 206 169 156 160 169 184 191
302 294 295 295 300 300 291 287 239 241 270 263 275 286 256 259 260 268 264 257 236 260 263 253 251 265 262 236 210 189 179 182 196 203 200 195 197 188 156 161 167 176 184 181
310 303 301 300 299 278 267 290 294 280 302 279 261 267 272 308 346 264 255 261 249 233 225 261 249 240 241 243 211 178 176 175 174 181 182 184 183 176 169 170 170 174 173 168
317 313 307 304 283 282 300 259 261 10 230 261 276 273 63 354 352 334 329 247 220 226 247 244 240 355 310 195 167 140 171 157 165 170 176 167 173 165 150 159 165 166 163 160
337 293 288 287 286 310 192 283 256 280 292 288 287 279 18 13 351 338 333 43 292 340 290 225 262 250 251 253 137 180 156 163 162 166 149 137 136 137 135 128 129 137 141 152
351 287 308 297 281 41 352 311 306 297 284 264 268 294 44 24 340 330 331 314 295 337 304 171 223 229 217 210 184 156 159 143 120 122 129 128 133 132 133 134 137 144 153 165
276 266 259 277 289 286 250 276 276 284 283 283 273 306 290 21 308 328 307 289 280 319 297 85 196 243 213 185 156 150 135 124 127 131 134 140 140 139 141 142 152 148 154 151
264 264 276 279 283 278 275 263 276 243 246 265 286 289 291 201 194 259 250 263 290 314 315 93 204 237 96 108 107 120 124 135 142 143 141 138 141 141 140 144 148 153 157 158
320 275 293 285 281 279 275 274 272 271 271 268 271 278 304 247 178 223 255 265 284 300 312 11 187 188 147 116 120 136 140 146 141 137 136 143 143 142 149 151 154 154 137 134
283 286 290 277 292 290 291 304 307 328 323 349 307 324 316 334 340 317 311 322 312 300 295 329 11 211 127 122 149 158 136 133 134 137 143 149 151 150 153 151 147 136 132 142
212 223 233 286 295 270 309 347 330 318 310 304 331 324 312 315 300 293 291 312 277 297 291 341 170 229 146 111 139 131 130 135 142 149 155 157 138 137 145 157 142 141 143 148
196 180 279 281 287 287 295 358 344 338 314 352 352 332 317 308 308 281 282 277 280 297 346 12 323 208 159 184 140 135 139 152 154 158 160 135 141 152 165 153 148 149 147 152
162 206 203 298 275 281 54 38 1 343 281 23 349 325 316 310 284 305 339 333 267 63 11 343 326 217 184 184 156 141 155 157 163 152 128 137 141 136 134 143 156 148 153 148
258 212 228 260 261 260 140 306 180 231 315 326 324 313 307 304 308 318 304 309 312 25 18 329 307 199 186 184 150 154 161 167 128 130 128 139 145 143 149 154 157 152 159 145
282 271 264 283 276 299 262 31 212 291 295 297 303 298 293 292 290 289 288 297 300 319 339 303 293 191 179 181 153 158 164 127 130 139 128 140 150 148 156 161 166 166 151 141
317 287 261 205 252 320 340 307 286 278 275 289 295 294 295 289 282 284 286 284 284 315 290 290 286 188 178 162 161 155 127 131 144 130 137 149 147 152 166 163 164 164 157 151
301 299 248 273 251 288 319 303 318 295 293 306 296 292 284 270 261 262 273 275 285 295 283 292 222 170 165 144 156 134 132 142 131 124 126 122 123 134 148 153 164 171 165 164
288 309 304 281 304 313 345 323 318 306 316 305 298 290 285 284 252 250 263 276 283 276 285 261 197 154 135 154 152 135 139 133 119 122 125 134 135 129 125 116 146 170 175 177
339 271 326 293 32 353 294 325 324 329 315 303 302 306 304 292 285 251 254 265 275 259 265 230 164 157 143 157 149 141 146 130 131 133 144 165 155 147 134 117 94 94 107 147
Height
728 736 734 723 715 710 713 715 710 698 689 694 692 678 665 658 664 668 670 669 666 665 662 662 664 666 669 672 678 683 689 694 699 703 704 704 703 705 705 706 709 712 713 716
734 734 720 715 714 718 722 724 719 707 700 703 695 685 666 658 654 652 657 660 661 659 655 657 657 661 663 668 674 679 682 687 691 696 697 698 698 698 698 699 703 707 709 712
739 732 722 724 726 727 724 725 721 719 709 704 701 698 679 662 654 651 647 646 646 651 652 652 651 653 657 661 666 670 675 679 684 687 692 692 693 692 692 694 697 700 705 709
738 729 728 727 726 725 729 713 711 712 715 720 700 707 686 672 663 657 653 649 643 641 643 644 645 647 651 656 661 665 669 673 677 680 684 685 685 686 686 690 692 696 702 707
738 730 728 729 725 722 722 711 711 708 708 709 705 707 683 676 666 657 649 646 642 637 639 639 639 642 646 651 654 657 661 664 668 671 675 678 680 682 683 685 689 694 699 705
726 715 720 729 730 727 719 720 716 709 706 712 699 699 685 677 666 656 642 635 632 631 631 631 633 636 639 643 644 648 651 653 657 662 667 671 674 677 679 681 687 692 697 704
724 721 722 735 740 731 718 723 742 721 711 702 687 691 675 663 656 649 644 633 624 620 620 622 624 626 629 633 636 638 641 645 649 656 660 663 670 672 674 677 684 691 696 702
739 742 731 732 737 736 723 724 743 738 714 697 674 684 668 659 652 641 634 626 622 618 617 616 616 618 619 623 627 630 635 640 645 650 653 658 665 669 670 674 681 689 694 699
740 735 720 717 714 722 717 720 713 734 724 702 685 671 658 654 649 643 632 624 617 618 617 613 613 615 615 617 619 623 629 636 641 646 650 655 662 665 666 674 680 686 692 696
733 738 727 718 711 717 714 702 711 707 723 717 689 678 669 657 663 640 632 622 619 613 612 614 614 614 613 614 616 620 626 633 638 644 649 654 658 661 665 672 679 684 690 694
731 736 733 726 717 710 705 700 700 730 722 712 700 681 664 676 685 682 661 621 613 611 611 610 608 612 608 609 613 619 625 631 637 643 648 652 657 661 666 673 678 683 689 694
738 746 743 726 705 701 709 710 720 714 709 694 695 671 668 692 688 687 679 630 622 613 613 613 613 614 615 610 611 620 625 632 637 642 647 652 657 663 668 674 680 685 690 695
753 742 745 725 703 726 728 711 702 694 697 699 707 686 677 696 706 693 690 664 630 616 615 611 611 613 611 610 611 618 625 630 637 643 648 654 661 666 671 676 682 687 691 695
745 744 745 740 726 725 736 714 700 694 697 677 679 683 675 700 703 699 693 675 629 617 614 607 610 609 602 601 607 614 622 631 639 647 653 659 664 669 674 679 684 688 692 696
744 747 734 724 714 705 698 695 678 678 676 674 668 666 662 673 683 690 680 656 631 617 611 608 615 609 603 601 609 620 627 636 642 649 657 662 668 672 677 681 685 689 693 696
741 740 728 719 709 701 691 678 667 658 659 657 652 654 646 642 653 662 651 638 628 620 613 608 612 613 607 608 617 621 628 637 643 651 658 665 669 674 678 682 686 690 693 695
751 741 732 718 705 694 694 675 669 664 655 667 668 662 657 651 646 642 633 630 624 620 617 612 614 616 610 614 618 625 629 637 646 653 660 665 670 674 679 683 687 690 693 698
743 748 746 725 709 712 678 667 675 675 672 666 663 660 659 651 646 641 634 628 623 618 616 616 616 614 609 616 621 626 633 641 648 655 660 664 669 676 681 685 688 691 696 699
728 749 738 726 717 701 689 691 696 690 675 671 669 665 663 653 641 637 631 622 620 618 621 622 624 613 612 620 623 628 636 643 649 653 658 663 668 675 681 686 690 693 697 702
734 741 740 728 722 709 707 715 713 709 682 692 691 683 675 662 656 640 635 627 615 622 622 623 626 622 621 622 627 630 637 642 647 651 658 664 671 676 682 686 691 695 699 702
722 728 729 722 716 702 715 710 713 710 688 688 695 687 678 670 659 656 644 632 622 619 621 620 625 619 620 624 627 632 636 641 647 654 659 666 672 676 683 688 692 696 700 702
720 721 713 716 710 700 705 705 713 704 701 695 689 689 681 673 664 654 642 632 622 616 619 620 623 616 620 625 628 632 637 642 650 655 661 669 674 678 683 688 692 696 699 702
716 712 722 719 705 693 698 702 703 701 698 692 688 681 678 672 666 654 642 630 620 614 621 622 612 614 618 622 628 633 639 645 651 657 665 671 675 680 684 689 693 696 699 702
704 695 702 707 696 702 704 699 697 696 691 688 685 680 673 661 657 648 636 626 618 614 620 620 608 615 617 620 627 634 641 647 653 661 667 670 677 682 685 689 693 695 698 701
700 694 698 692 691 696 698 699 696 692 689 683 675 670 658 649 639 636 629 624 619 613 616 612 612 611 613 621 628 636 644 650 657 662 668 674 679 684 688 691 693 694 696 699
698 707 699 702 704 708 704 699 694 689 685 678 670 657 649 642 634 629 625 619 618 612 611 607 606 609 614 621 628 636 644 650 658 665 670 674 679 684 687 691 695 697 698 700